Location: Beacon Field Observatory
(38.7700°N, 77.0829°W)
Time: 19:38:18
(UTC-05:00)

UKube-1 - Pass Details

Date: 09 December 2019
Orbit: 614 x 618 km, 98.5° (Epoch: 21 January)

Event Time Altitude Azimuth Distance (km) Brightness Sun altitude
Rises 04:06:17 0° 142° (SE) 2,868 ? -35.9°
Reaches altitude 10° 04:08:37 10° 133° (SE) 1,968 ? -35.4°
Enters shadow 04:09:37 16° 125° (SE) 1,616 ? -35.2°
